STARLINK-35378, 65794

Orbit data source: Space-Track

STARLINK-35378, 65794 is a payload satellite owned by SpaceX/Seattle (US) in SSO that was launched on Fri, 26 Sep 2025 UTC via an FALCON 9 launch vehicle from the Air Force Western Test Range (AFWTR). Payload-class satellites include a variety of spacecraft equipped with specific instruments for various scientific and technological missions. These include communications satellites like Starlink; space stations such as the ISS; scientific satellites like the Hubble; Earth observation satellites from companies like Planet Labs, Umbra, and HawkEye 360; GPS; miniature CubeSats for education and research; and military/defense satellites.

Loading next visibility...
Identifier
65794, 2025-218D
Orbit
SSO
Country
Flag of USUS
Related business
Manufacturer
SpaceX/Seattle
Mission
Operational Commercial Communications
Bus & Motor
STARLINK V2MO, Unknown motor
Mass
575 kg wet, ~530 kg dry
Launch date (UTC)
2025-09-26 (5 months ago)
Launch vehicle
FALCON 9
Launch site
Air Force Western Test Range (AFWTR)
Object type
Payload
Rocket body
Debris
Shape & HBR
Box + 2 Pan, 17.7 m
Radar Cross Section
36.964 m²

Expand to show TLE details & history
Last TLE update: 9 hours ago

TLE from 9 hours ago
0 STARLINK-35378
1 65794U 25218D   26062.48904982  .00004354  00000-0  30572-3 0  9995
2 65794  97.6028 286.7953 0002241  61.1166 299.0285 15.05654756 24033
Epoch: 2026-03-03T11:44Z
TLE epoch observation values (Epoch: 2026-03-03T11:44:13.904Z)
Latitude
-0.00007°
Longitude
-50.53°
Altitude
551.809 km
Speed
7.586 km/s
True Right ascension
19h 07m 10s
True Declination
0° 00' 00"
Sunlit
Object was in daylight at epoch
Visualization orbit readout
Latitude
Unknown
Longitude
Unknown
Altitude
Unknown
Speed
Unknown
Apparent Right ascension
Unknown
Apparent Declination
Unknown
Sunlit
N/A
Visualization observer readout
Local Sidereal Time
00:36:32
Azimuth
Unknown
Elevation
Unknown
Doppler factor
Unknown
Orbital elements
Apogee altitude
548.042 km
Perigee altitude
544.938 km
Semi-major axis
6,924.627 km
Eccentricity
0.00022
Inclination
97.6028°
RAAN
286.7953°
Arg. of periapsis
61.1166°
True anomaly
299.00604°
Mean anomaly
299.0285°
Eccentric anomaly
299.01727°
Mean motion
3.76659 °/min
Orbital period
95.58 mins
BSTAR
0.00030572
Loading maneuver chart data...
Computing Atmospheric mass density...
Loading historical data...
Loading historical data...
Loading historical data...
Loading historical data...
Loading historical data...
Loading historical data...
Loading historical data...

Documentation

Showing up to 5 results
|